Location: Winthrop
(48.4780°N, 120.1850°W)
Time: 18:01:24
(UTC-07:00)

Explorer 7 - Pass Details

Date: 29 January 2023
Orbit: 478 x 657 km, 50.3° (Epoch: 30 March)

Event Time Altitude Azimuth Distance (km) Brightness Sun altitude
Rises 17:49:07 0° 286° (WNW) 2,880 11.6 -9.2°
Reaches altitude 10° 17:51:23 10° 286° (WNW) 2,000 10.7 -9.6°
Maximum altitude 17:56:01 89° 200° (SSW) 650 7.2 -10.3°
Enters shadow 18:00:47 10° 108° (ESE) 2,051 9.2 -11.1°
Drops below altitude 10° 18:00:49 10° 108° (ESE) 2,068 - -11.1°
Sets 18:03:12 0° 109° (ESE) 2,986 - -11.5°
